Regional Weather Roundup
Issued by NWS Huntsville, AL

Home | Current Version | Previous Version | Text Only | Print | Product List | Glossary On
Versions: 1 2 3 4 5 6 7 8 9 10 11 12 13 14 15 16 17 18 19 20 21 22 23 24 25 26 27 28 29 30 31 32 33 34 35 36 37 38 39 40 41 42 43 44 45 46 47 48 49 50
000
ASUS44 KHUN 280810
RWRHUN

WEATHER ROUNDUP FOR THE TENNESSEE VALLEY
NATIONAL WEATHER SERVICE HUNTSVILLE AL
300 AM CDT SUN MAY 28 2017

ALZ001>004-280900-
NORTHWEST ALABAMA

CITY           SKY/WX    TMP DP  RH WIND       PRES   REMARKS
COURTLAND HCN    N/A     64 N/A N/A NE5         N/A
RUSSELLVILLE     N/A     63 N/A N/A MISG        N/A
SHOALS AIRPORT RAIN      65  62  90 SE8       29.93F
SHOALS TVA RES   N/A     64 N/A N/A MISG        N/A
$$

ALZ005>007-016-280900-
NORTH CENTRAL ALABAMA

CITY           SKY/WX    TMP DP  RH WIND       PRES   REMARKS
CULLMAN AG STN   N/A     63 N/A N/A N10         N/A
DECATUR AP     RAIN      64  63  96 E9        29.91F
HUNTSVILLE AP  TSTM      65  65 100 NE18      29.90F
MERIDIANVILLE  TSTM      63  61  94 N7        30.00R
REDSTONE ARSN  RAIN      64  63  94 E14       29.89F FOG
VINEMONT AP    LGT RAIN  63  61  95 N10       29.97F
$$

ALZ008>010-280900-
NORTHEAST ALABAMA

CITY           SKY/WX    TMP DP  RH WIND       PRES   REMARKS
ALBERTVILLE    TSTM      63  63 100 NW15G23   30.02R
FORT PAYNE     LGT RAIN  63  59  88 N6        29.91F
SCOTTSBORO AP  TSTM      64  64 100 N6        30.00R
SCOTTSBORO HCN   N/A     64 N/A N/A MISG        N/A
VALLEY HEAD      N/A     63 N/A N/A MISG        N/A
$$

TNZ076-096-097-280900-
SOUTHEASTERN MIDDLE TENNESSEE

CITY           SKY/WX    TMP DP  RH WIND       PRES   REMARKS
TULLAHOMA      CLOUDY    63  63 100 W8        30.01R
WINCHESTER     CLOUDY    63  63 100 W5          N/A
$$

...SURROUNDING SITES...

CITY           SKY/WX    TMP DP  RH WIND       PRES   REMARKS
ATLANTA        MOCLDY    69  62  78 S3        29.94F
ANNISTON       CLOUDY    73  70  90 CALM      29.91F
BIRMINGHAM     LGT RAIN  77  73  87 SW10      29.94S
CHATTANOOGA    RAIN      65  32  29 E3        29.93F
CORINTH        RAIN      64  63  94 NW5       29.97R
DALTON         CLOUDY    63  63 100 CALM      29.95S
GADSDEN        LGT RAIN  68  64  87 E3        29.93R
GOLDEN TRNGL   CLOUDY    72  61  68 N16G23    29.91R
JACKSON TN     TSTM      64  64 100 S6        29.95F
MEMPHIS        LGT RAIN  67  63  87 E12G17    29.93F
NASHVILLE      LGT RAIN  65  63  93 S12       29.90F
OXFORD MS      LGT RAIN  63  61  94 E6        29.99F
ROME           CLOUDY    66  65  96 E3        29.92F
SAVANNAH       MOCLDY    64  63  94 W6G14     29.98R
SELMER         CLOUDY    63  63 100 CALM      29.94S
TUPELO         TSTM      65  62  90 NW10      29.97R
TUSCALOOSA     CLOUDY    75  73  93 S8        29.93S
$$

...GULF COAST WEATHER...

CITY           SKY/WX    TMP DP  RH WIND       PRES   REMARKS
GULFPORT       CLOUDY    79  75  87 S5        29.93S
PASCAGOULA     CLOUDY    79  74  84 SW7       29.94S
MOBILE         MOCLDY    77  74  90 S8        29.94F
GULF SHORES    CLOUDY    78  78 100 SW9G17    29.95R
PENSACOLA      CLOUDY    78  75  90 SW9       29.95S
DESTIN         CLOUDY    80  80 100 VRB5      29.95S
PANAMA CITY    CLEAR     77  74  90 SW14      29.96S
APPALACHICOLA  PTCLDY    78  77  96 SW9       29.96S
$$




USA.gov is the U.S. government's official web portal to all federal, state and local government web resources and services.